Regional Weather Roundup
Issued by NWS

Home | Current Version | Previous Version | Graphics & Text | Print | Product List | Glossary On
Versions: 1 2 3 4 5 6 7 8 9 10 11 12 13 14 15 16 17 18 19 20 21 22 23 24 25 26 27 28 29 30 31 32 33 34 35 36 37 38 39 40 41 42 43 44 45 46 47 48 49 50
000
ASUS43 KIND 270009
RWRIN

WEATHER ROUNDUP FOR INDIANA
NATIONAL WEATHER SERVICE INDIANAPOLIS IN
700 PM EST THU FEB 26 2015

NOTE: "FAIR" INDICATES FEW OR NO CLOUDS BELOW 12,000 FEET WITH NO
SIGNIFICANT WEATHER AND/OR OBSTRUCTIONS TO VISIBILITY.

* - STATION DOES NOT REPORT WEATHER SUCH AS PRECIPITATION OR FOG.

+ - STATION NOT QUALITY CONTROLLED BY THE NATIONAL WEATHER SERVICE.
    USE DATA WITH CAUTION...ESPECIALLY DEWPOINT AND RELATIVE
    HUMIDITY OBSERVATIONS.

INZ001>003-010>013-019-020-270100-
NORTHWEST INDIANA

CITY           SKY/WX    TMP DP  RH WIND       PRES   REMARKS
GARY /AIRPORT/ MOCLDY    18   3  53 NW12G23   30.32R WCI   5
KNOX *+          N/A     10  -6  48 N7        30.29R WCI   0
LA PORTE +     CLEAR     15   9  77 N7        30.29R HAZE    WCI   5
6HR MIN TEMP:  15; 6HR MAX TEMP:  19;

MICHIGAN CITY+ MOCLDY    14   3  62 NE5       30.30R WCI   6
MONTICELLO +   CLEAR     11   2  66 N7        30.29R WCI   1
6HR MIN TEMP:  11; 6HR MAX TEMP:  19;

RENSSELAER +   LGT SNOW  16  12  86 N5        30.30R VSB 3/4 WCI   9
VALPARAISO     FLURRIES  14   6  70 N5        30.29R WCI   6
6HR MIN TEMP:  14; 6HR MAX TEMP:  17; 6HR PCP: TRACE;


$$

LMZ046-743>745-270100-
SOUTHERN LAKE MICHIGAN

STATION/POSITION TIME  TEMP WIND        PRES
                       AIR  DIR/SP/G
                 (UTC) (F)  (DEG/KT/KT) (MB)
MICHIGAN CITY    0000   16  360/ 14/ 17   N/A

$$

INZ004-005-014>016-021>024-270100-
NORTH CENTRAL INDIANA

CITY           SKY/WX    TMP DP  RH WIND       PRES   REMARKS
ELKHART        PTCLDY    12  -8  40 NW5       30.28R WCI   4
GOSHEN         CLOUDY    13  -3  49 NW10      30.25R WCI   0
6HR MIN TEMP:  13; 6HR MAX TEMP:  17;

LOGANSPORT +   CLEAR     12   0  57 N7        30.29R WCI   2
PERU/GRISSOM   PTCLDY    13   1  56 N10       30.26R WCI   0
6HR MIN TEMP:  13; 6HR MAX TEMP:  19; 6HR PCP: TRACE;

ROCHESTER +    FAIR      16   3  57 NW8       30.28R WCI   5
SOUTH BEND     PTCLDY    11  -1  58 N10       30.29R WCI  -3
6HR MIN TEMP:  11; 6HR MAX TEMP:  18;

WARSAW +       MOCLDY    14  -2  48 NW7       30.26R WCI   4

$$

INZ006>009-017-018-025>027-270100-
NORTHEAST INDIANA

CITY           SKY/WX    TMP DP  RH WIND       PRES   REMARKS
ANGOLA *+      CLEAR     12   1  62 N3        30.22R
AUBURN +       MOCLDY    18   3  53 NW5       30.24R WCI  11
FORT WAYNE     FLURRIES  15   7  70 NW6       30.25R WCI   6
6HR MIN TEMP:  15; 6HR MAX TEMP:  18; 6HR PCP: TRACE;

HUNTINGTON +   FLURRIES  15   7  71 NW3       30.25R
6HR MIN TEMP:  15; 6HR MAX TEMP:  17;


$$

INZ028-029-035-036-043>045-051>053-270100-
WEST CENTRAL INDIANA

CITY           SKY/WX    TMP DP  RH WIND       PRES   REMARKS
CRAWFORDSVL +  CLEAR     12   0  58 N9        30.28R WCI  -1
6HR MIN TEMP:  12; 6HR MAX TEMP:  19;

GREENCASTLE +  PTCLDY    18   9  68 N10       30.28R WCI   6
LAFAYETTE      CLEAR     13   3  64 N6        30.30R WCI   4
6HR MIN TEMP:  13; 6HR MAX TEMP:  20; 6HR PCP: TRACE;

TERRE HAUTE    CLOUDY    19  11  70 N13       30.30R WCI   6
6HR MIN TEMP:  19; 6HR MAX TEMP:  23; 6HR PCP: TRACE;


$$

INZ030>032-037>040-046>048-054>057-064-065-270100-
CENTRAL INDIANA

CITY           SKY/WX    TMP DP  RH WIND       PRES   REMARKS
CP ATTERBURY + CLOUDY    19  10  68 NE5       30.28R WCI  13
COLUMBUS       MOCLDY    16   7  67 N10       30.27R WCI   3
FRANKFORT +    CLEAR     14   7  74 NW8       30.29R WCI   2
6HR MIN TEMP:  14; 6HR MAX TEMP:  20;

GREENWOOD *+   PTCLDY    18   5  57 N6        30.26R WCI   9
INDIANAPOLIS   MOCLDY    17   8  67 NW9       30.26R WCI   6
6HR MIN TEMP:  17; 6HR MAX TEMP:  21;

-EAGLE CREEK   CLOUDY    17   9  70 N8        30.26R WCI   7
6HR MIN TEMP:  17; 6HR MAX TEMP:  19;

KOKOMO *+      PTCLDY    16   7  67 N10       30.27R WCI   3
6HR MIN TEMP:  16; 6HR MAX TEMP:  19;

MARION +       CLOUDY    16   8  70 NW5       30.26R WCI   8
MT COMFORT *+  MOCLDY    14   1  57 N7        30.26R WCI   4
SHELBYVILLE    CLOUDY    14   6  70 N7        30.26R WCI   4
6HR MIN TEMP:  14; 6HR MAX TEMP:  21;

ZIONSVILLE +   LGT SNOW  17  11  78 N7        30.26R WCI   7
6HR MIN TEMP:  17; 6HR MAX TEMP:  19;


$$

INZ033-034-041-042-049-050-058-059-270100-
EAST CENTRAL INDIANA

CITY           SKY/WX    TMP DP  RH WIND       PRES   REMARKS
MUNCIE         CLOUDY    13   8  81 NW3       30.24R
6HR MIN TEMP:  13; 6HR MAX TEMP:  16; 6HR PCP: TRACE;


$$

INZ060-061-067>069-081>083-085>088-270100-
SOUTHWEST INDIANA

CITY           SKY/WX    TMP DP  RH WIND       PRES   REMARKS
EVANSVILLE     MOCLDY    26  13  57 N13G21    30.30R WCI  15
6HR MIN TEMP:  26; 6HR MAX TEMP:  30; 6HR PCP: TRACE;

HUNTINGBURG *+ CLEAR     25  10  54 N12       30.26R WCI  14
6HR MIN TEMP:  25; 6HR MAX TEMP:  28;

WASHINGTON +   LGT SNOW  21  17  83 N9        30.28R WCI  11
6HR MIN TEMP:  21; 6HR MAX TEMP:  26;


$$

INZ062-063-066-070>080-084-089>092-270100-
SOUTH CENTRAL AND SOUTHEAST INDIANA

CITY           SKY/WX    TMP DP  RH WIND       PRES   REMARKS
BLOOMINGTON    PTCLDY    17   9  70 N8        30.26R WCI   7
6HR MIN TEMP:  16; 6HR MAX TEMP:  24;

NORTH VERNON + CLOUDY    19  10  68 N9        30.25R WCI   9
SEYMOUR +      CLOUDY    21  10  63 N14       30.26R WCI   8

$$




USA.gov is the U.S. government's official web portal to all federal, state and local government web resources and services.